EW1802 Weather Reports


time (UTC)temp
C
wind
direction
speed
KPH
gust
KPH
rain 1hr
cm
rain 24hr
cm
rain mn
cm
humidity
%
barometer
mb
20260504025704 5 219 0.0 0.0 0.00 0.00 0.00 86 1012.5
20260504024203 5 219 0.0 0.0 0.00 0.00 0.00 83 1012.5
20260504023703 5 219 0.0 0.0 0.00 0.00 0.00 82 1012.4
20260504023204 5 219 0.0 0.0 0.00 0.00 0.00 81 1012.5
20260504022703 6 219 0.0 0.0 0.00 0.00 0.00 81 1012.5
20260504022203 6 219 0.0 0.0 0.00 0.00 0.00 80 1012.5
20260504021704 6 219 0.0 0.0 0.00 0.00 0.00 80 1012.5
20260504021204 6 219 0.0 0.0 0.00 0.00 0.00 79 1012.5
20260504020705 6 219 0.0 0.0 0.00 0.00 0.00 77 1012.4
20260504015203 7 219 0.0 0.0 0.00 0.00 0.00 74 1012.5
20260504014704 7 219 0.0 0.0 0.00 0.00 0.00 72 1012.6
20260504014203 7 219 0.0 0.0 0.00 0.00 0.00 72 1012.5
20260504013703 8 219 0.0 0.0 0.00 0.00 0.00 70 1012.5
20260504013204 8 219 0.0 0.0 0.00 0.00 0.00 70 1012.4
20260504012204 8 219 0.0 0.0 0.00 0.00 0.00 67 1012.3
20260504011704 9 219 0.0 0.0 0.00 0.00 0.00 64 1012.3
20260504011204 10 219 0.0 0.0 0.00 0.00 0.00 63 1012.4
20260504010704 10 219 0.0 0.0 0.00 0.00 0.00 60 1012.4
20260504005704 10 219 0.0 0.0 0.00 0.00 0.00 58 1012.4
20260504005203 10 219 0.0 0.0 0.00 0.00 0.00 57 1012.4
20260504004703 10 219 0.0 0.0 0.00 0.00 0.00 56 1012.4
20260504004204 11 219 0.0 0.0 0.00 0.00 0.00 55 1012.3
20260504003204 11 219 0.0 0.0 0.00 0.00 0.00 53 1012.3
20260504002704 11 219 0.0 0.0 0.00 0.00 0.00 52 1012.3
20260504001203 12 218 0.0 0.0 0.00 0.00 0.00 51 1012.4
20260504000704 12 218 0.0 0.0 0.00 0.00 0.00 49 1012.4
20260504000204 12 228 0.0 0.0 0.00 0.00 0.00 50 1012.5
20260503235703 12 228 0.0 0.0 0.00 0.00 0.00 48 1012.5
20260503234703 13 191 0.0 0.0 0.00 0.00 0.00 47 1012.5
20260503233704 13 197 0.0 0.0 0.00 0.00 0.00 47 1012.5
20260503232704 13 222 0.0 0.0 0.00 0.00 0.00 47 1012.5
20260503232205 13 222 0.0 0.0 0.00 0.00 0.00 46 1012.5
20260503231704 13 184 0.0 0.0 0.00 0.00 0.00 46 1012.4
20260503231203 13 188 0.0 0.0 0.00 0.00 0.00 45 1012.5
20260503230204 13 221 0.0 0.0 0.00 0.00 0.00 46 1012.6
20260503225204 13 219 0.0 0.0 0.00 0.00 0.00 44 1012.6
20260503224703 14 205 0.0 0.0 0.00 0.00 0.00 44 1012.6
20260503224203 14 217 0.0 0.0 0.00 0.00 0.00 42 1012.6
20260503223704 14 170 0.0 1.6 0.00 0.00 0.00 41 1012.7
20260503223204 15 209 0.0 4.8 0.00 0.00 0.00 41 1012.7
20260503222704 15 223 0.0 1.6 0.00 0.00 0.00 43 1012.7
20260503221203 14 212 0.0 1.6 0.00 0.00 0.00 41 1012.8
20260503220703 14 182 0.0 0.0 0.00 0.00 0.00 44 1012.8
20260503220203 14 240 0.0 0.0 0.00 0.00 0.00 41 1012.8
20260503215204 14 184 0.0 0.0 0.00 0.00 0.00 43 1012.8
20260503214704 15 234 0.0 1.6 0.00 0.00 0.00 40 1012.8
20260503214204 15 219 0.0 3.2 0.00 0.00 0.00 41 1012.7
20260503213704 15 216 0.0 0.0 0.00 0.00 0.00 39 1012.7
20260503213203 15 242 0.0 0.0 0.00 0.00 0.00 39 1012.6
20260503212704 15 175 0.0 9.7 0.00 0.00 0.00 40 1012.5
20260503212204 15 232 1.6 11.3 0.00 0.00 0.00 38 1012.5
20260503211704 16 163 1.6 14.5 0.00 0.00 0.00 39 1012.4
20260503211204 16 224 0.0 0.0 0.00 0.00 0.00 40 1012.5
20260503210203 16 238 0.0 8.0 0.00 0.00 0.00 41 1012.6
20260503205703 15 159 0.0 3.2 0.00 0.00 0.00 41 1012.6
20260503204704 15 235 0.0 1.6 0.00 0.00 0.00 39 1012.8
20260503204204 16 210 0.0 11.3 0.00 0.00 0.00 38 1012.7
20260503203703 16 196 0.0 4.8 0.00 0.00 0.00 38 1012.7
20260503203204 15 223 0.0 4.8 0.00 0.00 0.00 37 1012.9
20260503202704 15 195 0.0 3.2 0.00 0.00 0.00 39 1013.0
20260503202204 15 199 0.0 1.6 0.00 0.00 0.00 43 1013.1
20260503201203 15 199 0.0 1.6 0.00 0.00 0.00 42 1013.3
20260503200703 15 235 0.0 0.0 0.00 0.00 0.00 40 1013.4
20260503200204 15 210 0.0 19.3 0.00 0.00 0.00 38 1013.5
20260503195703 15 166 1.6 8.0 0.00 0.00 0.00 38 1013.5
20260503195203 15 219 0.0 0.0 0.00 0.00 0.00 40 1013.6
20260503194705 15 259 0.0 1.6 0.00 0.00 0.00 40 1013.7
20260503193703 16 199 0.0 1.6 0.00 0.00 0.00 37 1013.8
20260503191703 16 188 0.0 0.0 0.00 0.00 0.00 40 1014.0
20260503191203 16 183 1.6 11.3 0.00 0.00 0.00 37 1014.2
20260503190703 16 190 0.0 3.2 0.00 0.00 0.00 38 1014.3
20260503190203 16 200 1.6 12.9 0.00 0.00 0.00 39 1014.4
20260503184703 15 242 0.0 4.8 0.00 0.00 0.00 43 1014.6
20260503184204 15 232 0.0 8.0 0.00 0.00 0.00 39 1014.6
20260503183704 15 196 0.0 3.2 0.00 0.00 0.00 42 1014.8
20260503183204 16 172 0.0 3.2 0.00 0.00 0.00 39 1014.8
20260503182204 16 234 1.6 8.0 0.00 0.00 0.00 39 1014.8
20260503181704 16 203 0.0 3.2 0.00 0.00 0.00 44 1014.8
20260503175703 15 202 0.0 4.8 0.00 0.00 0.00 42 1015.1
20260503175204 15 94 0.0 9.7 0.00 0.00 0.00 43 1015.1
20260503174704 15 174 0.0 1.6 0.00 0.00 0.00 40 1015.2
20260503174204 15 185 0.0 3.2 0.00 0.00 0.00 43 1015.2
20260503173704 15 170 0.0 8.0 0.00 0.00 0.00 41 1015.4
20260503172703 15 138 0.0 0.0 0.00 0.00 0.00 45 1015.4
20260503171704 15 168 0.0 8.0 0.00 0.00 0.00 44 1015.7
20260503171205 14 121 0.0 1.6 0.00 0.00 0.00 45 1015.6
20260503170704 14 189 1.6 11.3 0.00 0.00 0.00 41 1015.6
20260503170204 14 183 1.6 8.0 0.00 0.00 0.00 43 1015.7
20260503160204 13 171 0.0 3.2 0.00 0.00 0.00 43 1016.5
20260503150704 11 80 0.0 0.0 0.00 0.00 0.00 46 1016.7
20260503150203 11 159 0.0 0.0 0.00 0.03 0.00 43 1016.7
20260503140204 8 152 0.0 0.0 0.00 0.03 0.00 58 1017.2
20260503131204 6 163 0.0 0.0 0.00 0.03 0.00 70 1017.4
20260503130704 6 137 0.0 0.0 0.00 0.03 0.00 71 1017.4
20260503120204 4 173 0.0 0.0 0.00 0.03 0.00 94 1017.1
20260503110704 0 173 0.0 0.0 0.00 0.03 0.00 98 1016.6
20260503110204 0 173 0.0 0.0 0.00 0.03 0.00 98 1016.7
20260503100204 -1 174 0.0 0.0 0.00 0.05 0.00 96 1016.2
20260503090204 -1 174 0.0 0.0 0.00 0.05 0.00 96 1016.1
20260503081203 0 173 0.0 0.0 0.00 0.05 0.00 95 1016.1
20260503080704 0 173 0.0 0.0 0.00 0.05 0.00 95 1016.0
20260503080203 0 174 0.0 0.0 0.00 0.05 0.00 95 1016.1
20260503072703 0 173 0.0 0.0 0.00 0.05 0.00 94 1016.0
20260503072204 0 173 0.0 0.0 0.00 0.05 0.00 94 1015.9
20260503071204 0 173 0.0 0.0 0.00 0.05 0.00 94 1015.9
20260503070703 1 174 0.0 0.0 0.00 0.05 0.00 94 1015.9
20260503054703 1 173 0.0 0.0 0.00 0.05 0.00 95 1016.2
20260503054203 1 174 0.0 0.0 0.00 0.05 0.00 95 1016.1
20260503053703 1 174 0.0 0.0 0.00 0.05 0.00 95 1016.1
20260503053203 1 174 0.0 0.0 0.00 0.05 0.00 95 1016.2
20260503052703 1 174 0.0 0.0 0.00 0.05 0.00 95 1016.2
20260503052204 1 173 0.0 0.0 0.00 0.05 0.00 95 1016.2
20260503051704 1 174 0.0 0.0 0.00 0.05 0.00 95 1016.2
20260503051203 1 174 0.0 0.0 0.00 0.05 0.00 95 1016.3
20260503050703 1 173 0.0 0.0 0.00 0.05 0.00 95 1016.3
20260503050203 1 173 0.0 0.0 0.00 0.05 0.00 95 1016.3
20260503045703 0 173 0.0 0.0 0.00 0.05 0.00 95 1016.3
20260503045203 0 174 0.0 0.0 0.00 0.05 0.00 95 1016.4
20260503044704 0 173 0.0 0.0 0.00 0.05 0.00 95 1016.3
20260503044204 0 174 0.0 0.0 0.00 0.05 0.00 95 1016.3
20260503043704 0 173 0.0 0.0 0.00 0.05 0.00 95 1016.4
20260503043204 1 174 0.0 0.0 0.00 0.05 0.00 94 1016.4
20260503042703 1 174 0.0 0.0 0.00 0.05 0.00 95 1016.4
20260503042203 1 173 0.0 0.0 0.00 0.05 0.00 94 1016.4
20260503041703 1 174 0.0 0.0 0.00 0.05 0.00 94 1016.3
20260503040703 0 174 0.0 0.0 0.00 0.05 0.00 94 1016.5
20260503040203 0 174 0.0 0.0 0.00 0.05 0.00 93 1016.4
20260503035703 0 174 0.0 0.0 0.00 0.05 0.05 93 1016.5
20260503034703 1 173 0.0 0.0 0.00 0.05 0.05 92 1016.5
20260503033704 1 173 0.0 0.0 0.00 0.05 0.05 92 1016.5
20260503032704 1 173 0.0 0.0 0.00 0.05 0.05 91 1016.5
20260503032204 1 173 0.0 0.0 0.00 0.05 0.05 91 1016.5
20260503031703 1 173 0.0 0.0 0.00 0.05 0.05 90 1016.5
20260503031203 1 174 0.0 0.0 0.00 0.05 0.05 90 1016.5
20260503030704 1 174 0.0 0.0 0.00 0.05 0.05 90 1016.5